This demonstration page uses our WeatherBlox Daily Observations layout. Learn more.

Left ArrowRight Arrow

36.17497, -115.13722

Hourly Observations for December 26, 2019

Temp ( °F °C ) Dew Point ( °F °C ) Humidity (%) Winds ( mph kmh ) Pressure ( in mb ) Visibility ( mi km ) Precip ( " mm )
12:58 am 00:58 Clear 43 6.3 43 6.3 100 100 N 14 22 29.94 1014 10 16 0.00 0.00
1:58 am 01:58 Mostly Clear 43 6.1 43 6.1 100 100 NNE 17 28 29.95 1014 10 16 0.00 0.00
2:58 am 02:58 Clear 43 6.1 43 6.1 100 100 N 16 26 29.95 1014 10 16 0.00 0.00
3:58 am 03:58 Clear 43 6.1 43 6.1 100 100 NNE 13 20 29.94 1014 10 16 0.00 0.00
4:58 am 04:58 Clear 43 6 43 6 100 100 N 13 20 29.92 1013 10 16 0.00 0.00
5:58 am 05:58 Clear 43 6 43 6 100 100 N 14 22 29.93 1014 10 16 0.00 0.00
6:23 am 06:23 Mostly Cloudy 45 7 43 6 93 93 N 13 20 29.93 1014 10 16 0.00 0.00
6:29 am 06:29 Partly Cloudy 45 7 43 6 93 93 NNE 10 17 29.93 1014 10 16 0.00 0.00
6:58 am 06:58 Sunny 44 6.6 42 5.7 94 94 N 12 19 29.93 1014 10 16 0.00 0.00
7:58 am 07:58 Mostly Sunny 43 6.1 43 6.1 100 100 ENE 7 11 29.97 1015 10 16 0.00 0.00
7:59 am 07:59 Partly Cloudy with Light Rain 43 6 43 6 100 100 E 5 7 29.97 1015 10 16 0.00 0.00
8:12 am 08:12 Sunny 43 6 43 6 100 100 NNE 12 19 29.98 1015 10 16 0.00 0.00
8:58 am 08:58 Sunny 45 7 45 7 100 100 N 10 17 29.99 1016 10 16 0.00 0.00
9:07 am 09:07 Partly Cloudy with Light Rain 45 7 45 7 100 100 N 9 15 29.99 1016 10 16 0.00 0.00
9:15 am 09:15 Partly Cloudy 45 7 45 7 100 100 NE 7 11 29.99 1016 10 16 0.00 0.00
9:32 am 09:32 Partly Cloudy with Drizzle 45 7 45 7 100 100 NNE 8 13 29.98 1015 10 16 0.00 0.00
9:43 am 09:43 Sunny 45 7 45 7 100 100 NNE 13 20 29.99 1016 10 16 0.00 0.00
9:58 am 09:58 Sunny 45 7 45 7 100 100 N 13 20 29.99 1016 10 16 0.00 0.00
10:58 am 10:58 Sunny 46 7.8 42 5.3 84 84 N 23 37 29.94 1014 10 16 0.00 0.00
11:34 am 11:34 Sunny 46 8 39 4 76 76 NNE 15 24 29.93 1014 10 16 0.00 0.00
11:39 am 11:39 Sunny 46 8 39 4 76 76 N 25 41 29.93 1014 10 16 0.00 0.00
11:58 am 11:58 Sunny 47 8.1 37 2.8 70 70 N 21 33 29.92 1013 10 16 0.00 0.00
12:58 pm 12:58 Sunny 47 8.4 35 1.5 62 62 N 23 37 29.90 1013 10 16 0.00 0.00
1:58 pm 13:58 Sunny 47 8.1 35 1.9 65 65 N 16 26 29.89 1012 10 16 0.00 0.00
2:58 pm 14:58 Sunny 47 8.4 34 1.1 60 60 N 17 28 29.89 1012 10 16 0.00 0.00
3:58 pm 15:58 Sunny 47 8.1 34 1.3 63 63 N 21 33 29.90 1013 10 16 0.00 0.00
4:06 pm 16:06 Partly Cloudy with Light Rain 46 8 36 2 66 66 N 20 31 29.90 1013 10 16 0.00 0.00
4:09 pm 16:09 Sunny 46 8 36 2 66 66 NNW 22 35 29.90 1013 10 16 0.00 0.00
4:10 pm 16:10 Partly Cloudy with Light Rain 46 8 36 2 66 66 NNW 24 39 29.90 1013 10 16 0.00 0.00
4:19 pm 16:19 Sunny 46 8 36 2 66 66 N 21 33 29.90 1013 10 16 0.00 0.00
4:41 pm 16:41 Mostly Clear with Light Rain 46 8 36 2 66 66 N 17 28 29.91 1013 10 16 0.00 0.00
4:47 pm 16:47 Mostly Clear 46 8 36 2 66 66 N 13 20 29.91 1013 10 16 0.00 0.00
4:54 pm 16:54 Partly Cloudy with Light Rain 46 8 36 2 66 66 N 18 30 29.91 1013 10 16 0.00 0.00
4:58 pm 16:58 Partly Cloudy with Light Rain 46 7.7 36 2.2 68 68 N 21 33 29.91 1013 10 16 0.00 0.00
5:06 pm 17:06 Mostly Clear 46 8 36 2 66 66 N 16 26 29.92 1013 10 16 0.00 0.00
5:58 pm 17:58 Mostly Clear 46 7.5 36 2.4 70 70 N 12 19 29.93 1014 10 16 0.00 0.00
6:38 pm 18:38 Partly Cloudy with Light Rain 45 7 37 3 76 76 NNW 10 17 29.92 1013 10 16 0.00 0.00
6:40 pm 18:40 Partly Cloudy 45 7 37 3 76 76 NNW 12 19 29.92 1013 10 16 0.00 0.00
6:58 pm 18:58 Mostly Clear 45 7.4 37 2.9 73 73 N 15 24 29.93 1014 10 16 0.00 0.00
7:02 pm 19:02 Mostly Clear with Light Rain 45 7 37 3 76 76 NNW 17 28 29.93 1014 10 16 0.00 0.00
7:30 pm 19:30 Mostly Cloudy with Light Rain 45 7 39 4 81 81 N 12 19 29.92 1013 10 16 0.00 0.00
7:49 pm 19:49 Mostly Cloudy 43 6 39 4 87 87 N 18 30 29.93 1014 10 16 0.00 0.00
7:58 pm 19:58 Mostly Cloudy 44 6.4 40 4.6 88 88 N 16 26 29.93 1014 10 16 0.00 0.00
8:11 pm 20:11 Partly Cloudy 45 7 41 5 87 87 N 21 33 29.92 1013 10 16 0.00 0.00
8:12 pm 20:12 Partly Cloudy with Light Rain 45 7 41 5 87 87 N 17 28 29.92 1013 10 16 0.00 0.00
8:32 pm 20:32 Clear 45 7 41 5 87 87 N 20 31 29.92 1013 10 16 0.00 0.00
8:58 pm 20:58 Clear 44 6.6 41 5.2 91 91 NNW 14 22 29.92 1013 10 16 0.00 0.00
9:56 pm 21:56 Mostly Cloudy 45 7 39 4 81 81 WNW 6 9 29.92 1013 10 16 0.00 0.00
9:58 pm 21:58 Mostly Cloudy 45 7.2 38 3.4 77 77 WNW 5 7 29.92 1013 10 16 0.00 0.00
10:58 pm 22:58 Mostly Cloudy 44 6.7 39 3.7 81 81 NNW 3 6 29.91 1013 10 16 0.00 0.00
11:58 pm 23:58 Cloudy 44 6.7 39 4 83 83 Calm 29.90 1013 10 16 0.00 0.00

Powered by AerisWeather